This is the latest recevied weather packets stored in our database for station/object KR8N. If no packets are shown the sender has not sent any weather packets the latest 10 day(s).
| Time | Temp. | Humidity | Pressure | Rain* | Wind** | Luminosity | Snow |
|---|---|---|---|---|---|---|---|
| 1777561671 | 10.56° C | 56% | 1017.1 hPa | 0 mm | - | 505 W/m² | - |
| 1777561366 | 10.56° C | 58% | 1017 hPa | 0 mm | - | 482 W/m² | - |
| 1777561062 | 10° C | 59% | 1017.1 hPa | 0 mm | - | 787 W/m² | - |
| 1777560757 | 11.11° C | 58% | 1017 hPa | 0 mm | - | 268 W/m² | - |
| 1777560454 | 11.11° C | 58% | 1016.9 hPa | 0 mm | - | 563 W/m² | - |
| 1777560152 | 10° C | 59% | 1017 hPa | 0 mm | - | 597 W/m² | - |
| 1777559849 | 10° C | 55% | 1016.8 hPa | 0 mm | - | 280 W/m² | - |
| 1777559545 | 10° C | 59% | 1016.8 hPa | 0 mm | - | 341 W/m² | - |
| 1777559242 | 10° C | 59% | 1016.8 hPa | 0 mm | - | 424 W/m² | - |
| 1777558937 | 10° C | 57% | 1016.9 hPa | 0 mm | - | 297 W/m² | - |
| 1777558634 | 9.44° C | 57% | 1016.7 hPa | 0 mm | - | 302 W/m² | - |
| 1777558329 | 10° C | 54% | 1016.6 hPa | 0 mm | - | 258 W/m² | - |
| 1777558026 | 10° C | 58% | 1016.7 hPa | 0 mm | - | 412 W/m² | - |
| 1777557722 | 10° C | 59% | 1016.6 hPa | 0 mm | - | 260 W/m² | - |
| 1777557419 | 10° C | 60% | 1016.8 hPa | 0 mm | - | 239 W/m² | - |
| 1777557115 | 9.44° C | 62% | 1016.6 hPa | 0 mm | - | 257 W/m² | - |
| 1777556811 | 9.44° C | 59% | 1016.8 hPa | 0 mm | - | 332 W/m² | - |
| 1777556508 | 9.44° C | 62% | 1016.6 hPa | 0 mm | - | 239 W/m² | - |
| 1777556207 | 9.44° C | 62% | 1016.8 hPa | 0 mm | - | 286 W/m² | - |
| 1777555903 | 8.89° C | 62% | 1016.6 hPa | 0 mm | - | 238 W/m² | - |
| 1777555599 | 9.44° C | 63% | 1016.9 hPa | 0 mm | - | 220 W/m² | - |
| 1777555296 | 9.44° C | 65% | 1016.7 hPa | 0 mm | - | 211 W/m² | - |
| 1777554992 | 9.44° C | 64% | 1016.6 hPa | 0 mm | - | 257 W/m² | - |
| 1777554690 | 9.44° C | 67% | 1016.6 hPa | 0 mm | - | 206 W/m² | - |
| 1777554386 | 8.89° C | 67% | 1016.7 hPa | 0 mm | - | 220 W/m² | - |
* Rain latest hour (hover to see other rain measurements)
** Current wind speed in m/s (hover to see current wind gust speed)